Rome, GA

7:02 AM EST on December 11, 2019 (GMT -0500)
Russell

Weather History for KRMG - November, 2019

Change the Weather History Date:

Thursday, November 21, 2019

  Actual Average Record
Temperature  
Mean Temperature 54 °F 49 °F  
Max Temperature 70 °F 61 °F 75 °F (2007)
Min Temperature 39 °F 37 °F 19 °F (2008)
Degree Days  
Heating Degree Days 10 16  
Month to date heating degree days 345 270  
Since 1 July heating degree days 431 447  
Growing Degree Days 4 (Base 50)    
Moisture  
Dew Point 40 °F    
Average Humidity 63    
Maximum Humidity 89    
Minimum Humidity 32    
Precipitation  
Precipitation 0.00 in 0.19 in 1.86 in (2005)
Month to date precipitation 1.20 3.17  
Year to date precipitation 51.80 45.86  
Sea Level Pressure  
Sea Level Pressure 30.20 in    
Wind  
Wind Speed 1 mph ()    
Max Wind Speed 12 mph    
Max Gust Speed 17 mph    
Visibility 10.0 miles    
Events      
T = Trace of Precipitation, MM = Missing Value Source: Averaged Metar Reports

Daily Weather History Graph

Daily Weather History Graph

Search for Another Location

Airport or City:

Astronomy

Nov. 21, 2019 Rise Set
Actual Time 7:19 AM EST 5:33 PM EST
Civil Twilight 6:52 AM EST 6:00 PM EST
Nautical Twilight 6:21 AM EST 6:30 PM EST
Astronomical Twilight 5:51 AM EST 7:00 PM EST
Moon 1:33 AM EST (11/21) 2:44 PM EST (11/21)
Length of Visible Light 11h 08m
Length of Day
10h 14m
Waning Crescent, 30% of the Moon is Illuminated
Nov 21
Waning Crescent
Nov 26
New
Dec 4
First Quarter
Dec 12
Full
Dec 18
Last Quarter

Hourly Weather History & Observations

Time (EST) Temp. Dew Point Humidity Pressure Visibility Wind Dir Wind Speed Gust Speed Precip Events Conditions
12:53 AM 42.1 °F 37.9 °F 85% 30.23 in 10.0 mi Calm Calm - N/A   Clear
1:53 AM 42.1 °F 37.9 °F 85% 30.24 in 10.0 mi Calm Calm - N/A   Clear
2:53 AM 42.1 °F 37.9 °F 85% 30.23 in 10.0 mi Calm Calm - N/A   Clear
3:53 AM 43.0 °F 37.9 °F 82% 30.23 in 10.0 mi Calm Calm - N/A   Clear
4:53 AM 42.1 °F 37.9 °F 85% 30.23 in 10.0 mi Calm Calm - N/A   Clear
6:53 AM 39.9 °F 37.0 °F 89% 30.27 in 10.0 mi Calm Calm - N/A   Clear
7:53 AM 42.1 °F 39.0 °F 89% 30.27 in 10.0 mi Calm Calm - N/A   Clear
8:53 AM 46.9 °F 39.9 °F 77% 30.27 in 10.0 mi Calm Calm - N/A   Clear
9:53 AM 52.0 °F 42.1 °F 69% 30.28 in 10.0 mi Variable 3.5 mph - N/A   Clear
10:53 AM 57.9 °F 43.0 °F 58% 30.27 in 10.0 mi NNE 3.5 mph - N/A   Clear
11:53 AM 64.0 °F 41.0 °F 43% 30.22 in 10.0 mi Variable 5.8 mph - N/A   Clear
12:53 PM 66.9 °F 39.9 °F 37% 30.19 in 10.0 mi South 8.1 mph - N/A   Clear
1:53 PM 70.0 °F 39.0 °F 32% 30.17 in 10.0 mi South 8.1 mph - N/A   Clear
2:53 PM 69.1 °F 37.9 °F 32% 30.15 in 10.0 mi SW 5.8 mph - N/A   Clear
3:53 PM 68.0 °F 39.0 °F 35% 30.14 in 10.0 mi South 3.5 mph - N/A   Clear
4:53 PM 64.9 °F 39.9 °F 40% 30.14 in 10.0 mi SSW 5.8 mph - N/A   Clear
5:53 PM 62.1 °F 39.9 °F 44% 30.15 in 10.0 mi Calm Calm - N/A   Mostly Cloudy
6:53 PM 61.0 °F 41.0 °F 48% 30.15 in 10.0 mi South 3.5 mph - N/A   Clear
7:53 PM 57.9 °F 42.1 °F 56% 30.16 in 10.0 mi Calm Calm - N/A   Partly Cloudy
8:53 PM 54.0 °F 42.1 °F 64% 30.16 in 10.0 mi Calm Calm - N/A   Clear
9:53 PM 53.1 °F 45.0 °F 74% 30.16 in 10.0 mi Calm Calm - N/A   Overcast
10:53 PM 53.1 °F 45.0 °F 74% 30.14 in 10.0 mi Calm Calm - N/A   Clear
11:53 PM 54.0 °F 44.1 °F 69% 30.12 in 10.0 mi Calm Calm - N/A   Scattered Clouds